TimeEDT,TemperatureF,Dew PointF,Humidity,Sea Level PressureIn,VisibilityMPH,Wind Direction,Wind SpeedMPH,Gust SpeedMPH,PrecipitationIn,Events,Conditions,WindDirDegrees,DateUTC
12:56 AM,42.1,28.0,58,30.11,10.0,West,8.1,-,N/A,,Overcast,280,2013-03-27 04:56:00
1:56 AM,37.9,27.0,65,30.12,10.0,WNW,8.1,-,N/A,,Clear,290,2013-03-27 05:56:00
2:56 AM,37.0,26.1,65,30.12,10.0,WNW,6.9,-,N/A,,Clear,290,2013-03-27 06:56:00
3:56 AM,36.0,26.1,67,30.12,10.0,West,6.9,-,N/A,,Clear,270,2013-03-27 07:56:00
4:56 AM,34.0,25.0,70,30.13,10.0,West,6.9,-,N/A,,Clear,280,2013-03-27 08:56:00
5:56 AM,33.1,25.0,72,30.14,10.0,West,5.8,-,N/A,,Clear,270,2013-03-27 09:56:00
6:56 AM,32.0,25.0,75,30.16,10.0,West,5.8,-,N/A,,Clear,270,2013-03-27 10:56:00
7:56 AM,34.0,26.1,73,30.18,10.0,West,6.9,-,N/A,,Clear,280,2013-03-27 11:56:00
8:56 AM,39.9,26.1,58,30.19,10.0,NW,12.7,-,N/A,,Clear,310,2013-03-27 12:56:00
9:56 AM,46.0,26.1,46,30.20,10.0,NW,15.0,20.7,N/A,,Clear,320,2013-03-27 13:56:00
10:56 AM,48.0,23.0,37,30.20,10.0,NNW,12.7,-,N/A,,Clear,340,2013-03-27 14:56:00
11:56 AM,50.0,21.0,32,30.19,10.0,North,11.5,-,N/A,,Clear,350,2013-03-27 15:56:00
12:56 PM,52.0,19.9,28,30.17,10.0,WNW,12.7,20.7,N/A,,Clear,300,2013-03-27 16:56:00
1:56 PM,53.1,21.0,29,30.16,10.0,WNW,15.0,23.0,N/A,,Partly Cloudy,300,2013-03-27 17:56:00
2:56 PM,54.0,21.0,28,30.14,10.0,WNW,12.7,25.3,N/A,,Clear,300,2013-03-27 18:56:00
3:56 PM,55.0,21.0,27,30.13,10.0,WNW,17.3,24.2,N/A,,Clear,300,2013-03-27 19:56:00
4:56 PM,55.0,19.9,25,30.12,10.0,WNW,15.0,23.0,N/A,,Clear,300,2013-03-27 20:56:00
5:56 PM,54.0,19.9,26,30.14,10.0,West,17.3,23.0,N/A,,Partly Cloudy,280,2013-03-27 21:56:00
6:56 PM,52.0,21.0,30,30.14,10.0,WNW,12.7,18.4,N/A,,Clear,300,2013-03-27 22:56:00
7:56 PM,48.9,21.9,35,30.17,10.0,WNW,10.4,-,N/A,,Clear,300,2013-03-27 23:56:00
8:56 PM,46.0,21.9,39,30.19,10.0,WNW,9.2,-,N/A,,Clear,290,2013-03-28 00:56:00
9:56 PM,41.0,23.0,49,30.22,10.0,WNW,6.9,-,N/A,,Clear,290,2013-03-28 01:56:00
10:56 PM,41.0,23.0,49,30.23,10.0,West,8.1,-,N/A,,Clear,280,2013-03-28 02:56:00
11:56 PM,42.1,21.0,43,30.23,10.0,NW,8.1,-,N/A,,Clear,310,2013-03-28 03:56:00